Vertical_Velocity
-5 -6 -7 -7 -8 -7 -7 -7 -6 -6 -5 -5 -6 -6 -6 -5 -6 -6 -6 -5 -5 -5 -6 -6 -6 -6 -5 -4 -3 -2 -2 -2 -3 -3 -3 -3 -3 -2 -1 -1 -0 -0 -0 -0 -1 -1 -1 -1 -1 -0 1 2 2 1 0 -0 -0 -1 -2 -3 -4 -6 -7 -9 -5 1 6 6 2
-4 -4 -5 -6 -7 -7 -7 -7 -6 -6 -6 -5 -5 -5 -6 -6 -7 -7 -7 -6 -5 -5 -5 -6 -6 -6 -6 -6 -4 -3 -2 -2 -2 -3 -3 -3 -3 -2 -2 -1 -0 -0 -0 -0 -1 -1 -1 -1 -1 -0 1 2 2 1 0 -0 -0 -1 -1 -3 -4 -5 -7 -10 -8 -2 4 5 3
-2 -3 -4 -4 -5 -6 -7 -7 -6 -5 -5 -5 -4 -4 -5 -6 -7 -8 -8 -8 -6 -6 -5 -6 -6 -6 -6 -7 -5 -4 -3 -2 -2 -2 -2 -3 -3 -3 -2 -1 -1 -0 -0 -0 -1 -1 -1 -1 -1 -0 1 1 2 1 1 -0 -1 -1 -2 -3 -3 -4 -6 -9 -9 -5 -0 4 4
-1 -2 -2 -3 -4 -4 -5 -6 -6 -5 -4 -4 -4 -4 -4 -5 -6 -7 -7 -8 -7 -7 -6 -6 -6 -6 -6 -7 -7 -6 -4 -3 -2 -1 -1 -2 -2 -3 -2 -2 -1 -1 -0 -0 -1 -1 -1 -1 -0 0 1 1 2 1 1 -0 -2 -3 -2 -1 -1 -3 -6 -8 -7 -6 -5 -2 1
-0 -1 -1 -1 -3 -3 -4 -4 -4 -5 -4 -3 -3 -3 -3 -3 -4 -5 -6 -6 -6 -7 -7 -6 -6 -6 -6 -6 -7 -6 -5 -4 -3 -2 -1 -1 -2 -2 -2 -2 -1 -1 -0 -0 -1 -1 -1 -1 -0 0 1 1 1 1 1 -0 -2 -2 -2 -0 -1 -3 -5 -5 -5 -6 -7 -7 -2
-1 -1 -2 -2 -2 -2 -3 -4 -3 -3 -3 -2 -1 -1 -1 -1 -2 -2 -3 -4 -5 -5 -5 -6 -6 -6 -6 -6 -7 -7 -6 -5 -4 -2 -1 -1 -1 -1 -2 -2 -1 -1 -0 -1 -1 -1 -2 -1 -0 1 1 2 1 1 1 0 -1 -2 -1 -0 -2 -3 -2 -2 -4 -6 -7 -7 -3
-1 -1 -2 -3 -2 -2 -3 -3 -3 -2 -2 -0 -0 0 0 1 0 -0 -0 -1 -2 -3 -4 -5 -5 -6 -6 -6 -6 -7 -6 -6 -5 -3 -2 -1 -1 -1 -1 -2 -1 -1 -1 -1 -1 -2 -2 -2 -0 1 2 2 1 1 0 -0 -1 -1 -1 -2 -2 -1 -0 -2 -3 -4 -4 -6 -5
-2 -2 -2 -2 -2 -2 -2 -2 -2 -2 -2 -0 1 1 1 1 1 1 0 0 -0 -1 -2 -3 -4 -5 -5 -5 -6 -6 -6 -6 -6 -4 -3 -1 -1 -0 -0 -1 -1 -1 -1 -0 -1 -2 -2 -2 -0 1 2 2 2 1 0 -0 -1 -1 -1 -2 -1 -1 -1 -3 -2 -2 -3 -5 -4
-2 -2 -2 -2 -2 -2 -2 -2 -1 -1 -2 -2 -1 -0 -0 -1 -1 -1 -1 -1 -1 -1 -1 -3 -4 -4 -4 -4 -5 -6 -6 -6 -6 -5 -3 -2 -1 -0 -0 -0 -1 -1 -1 -1 -1 -2 -2 -2 -1 0 1 2 2 1 1 -0 -1 -1 -1 -1 -1 -1 -2 -2 -1 -2 -3 -3 -2
-3 -2 -2 -3 -3 -2 -1 -2 -2 -2 -2 -4 -3 -3 -3 -3 -3 -3 -3 -2 -2 -2 -2 -2 -4 -4 -4 -3 -4 -5 -6 -6 -6 -5 -4 -2 -1 -1 -0 -0 -0 -0 -1 -1 -1 -2 -2 -2 -1 0 1 1 2 1 1 0 -0 -1 -1 -0 -0 -1 -1 -1 -0 -1 -2 -1 -3
-3 -2 -2 -2 -3 -3 -3 -3 -4 -4 -4 -4 -4 -4 -4 -4 -4 -4 -4 -3 -2 -2 -2 -2 -4 -4 -4 -3 -3 -4 -5 -6 -6 -5 -4 -3 -1 -1 -0 -0 -0 -0 -1 -1 -1 -2 -2 -2 -1 -0 0 1 1 1 1 0 -0 -1 -0 -0 0 -0 -0 -0 -0 -1 -1 -2 -3
-3 -3 -3 -2 -3 -4 -5 -5 -5 -5 -5 -5 -4 -5 -5 -5 -4 -5 -5 -4 -3 -3 -3 -3 -4 -4 -4 -3 -3 -4 -4 -5 -5 -5 -4 -3 -1 -0 -0 -0 -0 -0 -0 -1 -1 -2 -2 -2 -1 -0 0 1 1 1 1 0 -0 -0 -0 -0 0 0 0 -0 -0 -1 -2 -2 -2
-3 -4 -5 -5 -5 -6 -6 -7 -6 -5 -5 -5 -4 -4 -5 -6 -5 -5 -5 -5 -4 -3 -3 -3 -3 -4 -4 -4 -3 -3 -4 -4 -5 -5 -4 -3 -2 -1 -0 0 0 0 -0 -1 -1 -1 -2 -2 -1 -0 0 1 1 1 1 0 -0 -0 -0 -0 0 0 0 0 -0 -1 -1 -1 -2
-4 -6 -7 -7 -7 -7 -6 -7 -7 -6 -5 -5 -4 -4 -4 -6 -5 -5 -5 -5 -4 -4 -3 -3 -3 -4 -4 -4 -3 -3 -3 -3 -4 -4 -4 -3 -2 -1 -0 0 1 0 0 -1 -1 -1 -2 -2 -1 -1 0 1 1 1 0 -0 -0 -0 -0 0 0 0 0 1 -0 -1 -1 -2 -3
-7 -7 -7 -7 -7 -6 -6 -6 -6 -6 -5 -5 -4 -4 -4 -6 -5 -5 -5 -6 -5 -4 -3 -3 -3 -3 -3 -3 -3 -3 -3 -3 -3 -3 -3 -3 -2 -1 -0 0 1 1 0 -0 -1 -1 -1 -1 -2 -1 -0 1 2 1 0 -1 -1 -0 -0 -0 -0 0 1 1 0 -1 -2 -3 -2
-8 -7 -6 -6 -6 -6 -5 -5 -6 -5 -5 -5 -5 -4 -4 -5 -5 -5 -5 -6 -6 -5 -3 -3 -3 -3 -3 -3 -2 -3 -3 -2 -2 -2 -2 -2 -1 -1 -0 0 1 1 0 -0 -0 -0 -1 -1 -1 -1 -0 1 2 2 1 -1 -1 -1 -0 -0 0 0 1 0 0 -0 -1 -2 -1
-7 -6 -5 -5 -5 -5 -5 -5 -5 -5 -5 -6 -5 -5 -4 -5 -6 -5 -5 -5 -5 -5 -4 -4 -3 -3 -3 -3 -2 -2 -2 -2 -1 -1 -1 -1 -1 -0 -0 0 1 0 0 -0 -0 -0 -0 -1 -1 -1 -0 1 2 2 1 -0 -1 -1 -1 -0 0 0 1 1 0 -0 -1 -1 -1
-6 -5 -4 -3 -4 -4 -4 -4 -5 -5 -5 -5 -6 -6 -5 -5 -5 -6 -6 -5 -4 -5 -5 -4 -3 -2 -2 -3 -2 -1 -1 -1 -1 -0 -0 -0 -1 -0 0 1 1 0 -0 -0 -0 0 0 -0 -1 -1 -1 0 1 2 1 0 -1 -1 -1 -0 -0 0 1 1 0 -0 -0 -0 -1
-5 -5 -5 -4 -3 -4 -4 -4 -4 -5 -5 -5 -5 -6 -6 -5 -5 -5 -5 -5 -4 -4 -5 -5 -3 -2 -2 -2 -2 -1 -0 0 0 1 1 1 -0 0 0 1 1 0 -0 -0 0 0 0 0 -0 -1 -1 -0 1 2 1 1 -0 -1 -1 -1 -1 -0 1 1 0 0 0 -0 -0
-5 -5 -5 -5 -4 -3 -4 -4 -4 -4 -5 -5 -5 -5 -6 -5 -5 -5 -5 -5 -4 -4 -4 -5 -4 -3 -2 -2 -2 -1 -0 1 1 2 2 1 1 1 1 1 1 0 0 -0 0 0 0 0 -0 -1 -1 -0 1 1 1 1 -0 -1 -1 -1 -1 -0 0 1 1 0 0 0 1
-5 -5 -5 -5 -4 -4 -3 -4 -4 -4 -4 -5 -5 -5 -5 -5 -4 -4 -4 -4 -4 -4 -4 -4 -4 -3 -2 -2 -1 -0 1 2 2 2 2 2 1 1 1 1 1 0 0 0 -0 -0 -0 -0 -0 -0 -0 -0 0 1 1 1 -0 -0 -1 -1 -0 -0 -0 1 1 1 1 1 1
-5 -4 -4 -4 -4 -4 -3 -3 -3 -4 -4 -4 -4 -4 -4 -4 -4 -4 -3 -3 -3 -3 -3 -4 -3 -3 -2 -1 -0 1 2 3 3 3 2 2 1 1 1 1 1 1 1 0 -0 -0 -0 -0 -0 -0 -0 -0 0 1 1 0 -0 -0 -0 -0 -0 -0 -0 0 1 1 1 1 1
-4 -4 -4 -3 -4 -3 -3 -3 -3 -3 -4 -4 -4 -4 -4 -4 -3 -3 -2 -2 -2 -3 -3 -3 -3 -2 -2 -1 0 1 2 4 4 3 2 1 1 1 1 1 1 1 1 1 0 -0 -1 -1 -0 -0 -0 -0 0 1 1 0 -0 -0 -0 -0 -0 -0 -0 0 1 1 1 1 1
-2 -3 -3 -3 -3 -3 -3 -2 -3 -3 -3 -3 -3 -3 -3 -3 -2 -2 -1 -1 -1 -2 -3 -3 -3 -2 -1 0 1 2 3 3 3 3 2 1 1 1 1 1 1 1 1 1 0 -1 -1 -1 -1 -0 -0 -0 0 1 1 0 -0 -0 -0 0 0 0 0 0 0 0 0 1 1
-1 -2 -3 -3 -2 -2 -3 -2 -3 -3 -3 -3 -3 -3 -2 -2 -2 -1 -1 -0 -0 -1 -2 -3 -2 -1 -0 1 2 3 3 3 2 2 2 2 1 1 1 1 1 1 1 1 0 -1 -1 -1 -1 -1 -0 -0 0 1 1 0 -0 -0 -0 -0 0 0 0 1 1 0 0 0 1
-1 -1 -2 -3 -2 -2 -2 -2 -2 -2 -3 -3 -2 -2 -2 -1 -1 -0 -0 -0 -0 -1 -1 -1 -1 -0 0 1 2 3 3 2 2 1 1 1 1 1 1 1 1 1 1 1 0 -0 -1 -1 -1 -1 -0 -0 0 1 1 0 -0 -0 -0 -0 -0 0 1 1 1 1 0 -0 0
-2 -2 -2 -2 -2 -1 -1 -1 -1 -2 -3 -2 -2 -2 -1 -0 -0 0 0 0 0 -0 -0 -0 -0 -0 1 2 3 3 2 2 1 1 1 1 1 1 1 1 1 1 1 1 0 -0 -1 -1 -1 -1 -0 -0 0 1 1 1 0 -0 -0 -0 0 1 1 1 1 0 -0 -0 0
-2 -2 -2 -2 -2 -1 -1 -0 -0 -1 -2 -2 -2 -1 -1 0 1 1 1 1 1 1 0 -0 -0 0 1 2 2 2 2 2 1 1 0 1 1 2 2 1 1 1 1 1 0 -0 -0 -0 -0 -0 -0 -0 0 1 1 1 -0 -0 -0 0 0 1 1 2 1 0 -0 -0 0
-1 -2 -3 -2 -2 -1 -0 1 0 -0 -1 -1 -1 -1 0 1 2 2 2 2 1 1 1 -0 -0 1 2 2 2 2 2 2 1 1 0 1 1 2 2 2 2 1 1 1 0 0 0 0 -0 -0 -0 -0 0 1 1 1 -0 -0 -0 0 1 1 2 1 1 0 0 0 1
0 -1 -2 -2 -2 -1 -0 1 1 0 -0 -0 -1 -0 0 1 2 3 3 2 2 1 1 -0 0 1 2 2 2 2 2 2 1 1 1 1 1 2 2 2 2 1 1 1 1 1 1 0 0 -0 -0 -0 0 1 1 1 0 -0 -0 1 2 2 2 1 1 1 0 1 1
0 -0 -1 -1 -1 -1 -0 0 1 1 0 0 -0 -0 0 1 2 3 3 3 2 2 1 1 1 1 1 1 2 2 2 2 2 1 1 1 1 2 2 2 2 2 1 1 1 1 1 1 0 0 0 0 0 1 1 1 1 0 1 2 3 3 2 1 1 0 0 1 1
-0 -0 -0 -1 -1 -0 0 1 1 1 1 1 1 1 1 1 2 3 3 3 2 2 1 1 1 1 1 1 2 2 2 2 2 1 1 1 1 2 2 2 2 2 2 1 1 1 1 1 1 1 1 0 1 1 1 1 1 1 1 3 3 2 1 1 1 0 0 0 1
-0 -0 -0 -0 -1 -0 1 1 1 1 1 1 1 1 1 1 2 3 4 3 2 2 1 1 1 1 1 1 2 2 2 2 2 2 1 1 1 2 2 3 3 2 2 2 2 2 2 2 2 1 1 1 1 1 1 1 0 1 2 4 3 2 1 0 0 0 0 1 2
-0 -0 -1 -0 -0 0 0 1 1 1 1 1 1 1 1 1 1 2 3 3 2 2 1 1 2 1 1 2 2 2 2 2 2 2 2 1 2 2 2 3 3 3 2 2 2 2 2 2 2 2 1 1 0 0 0 0 0 1 2 4 2 1 1 0 0 0 1 1 2
-1 -1 -1 -1 -0 0 0 0 0 0 1 1 1 1 2 1 1 2 2 2 2 2 2 2 2 2 2 2 2 2 2 2 2 2 2 2 2 2 2 2 3 3 3 3 2 2 2 2 2 1 1 0 0 -0 -0 -1 -0 1 3 3 2 1 1 1 1 1 1 2 3
-1 -1 -2 -2 -1 -0 0 0 0 0 0 1 1 1 1 1 1 1 1 2 2 2 2 2 2 2 2 2 2 2 2 2 2 2 2 2 2 2 2 2 3 4 4 4 2 2 2 2 2 1 1 0 -0 -0 -0 -0 1 2 3 3 2 1 1 1 1 1 2 3 4
-1 -1 -2 -3 -2 -1 -0 -0 0 0 0 0 1 1 1 1 1 1 1 1 1 1 1 2 2 2 2 2 2 2 2 2 2 2 2 2 2 1 1 2 4 5 5 4 2 1 1 2 1 1 1 0 0 0 1 1 2 3 3 3 2 2 2 2 1 2 2 3 4
-0 -1 -2 -3 -2 -2 -1 -0 -0 -0 -0 0 1 1 1 0 0 1 1 1 0 -0 1 2 2 2 2 2 2 2 2 2 2 3 3 2 1 1 1 3 5 6 5 3 1 0 0 1 1 1 0 1 1 2 2 3 4 4 4 3 3 3 3 2 2 2 3 3 4
-0 -1 -1 -2 -2 -2 -1 -1 -0 -0 -0 -0 0 1 1 0 -0 -0 0 1 -0 -0 0 2 2 2 2 1 2 2 3 3 3 3 2 1 0 1 2 5 6 6 5 3 1 -0 -0 1 1 1 1 1 2 3 4 4 4 4 4 4 4 4 3 3 3 3 3 3 4
-0 -1 -1 -2 -2 -2 -2 -1 -0 0 0 -0 -0 0 0 0 -0 -0 -0 0 -0 -1 -0 1 2 2 2 1 2 2 3 3 3 2 1 -0 1 2 4 6 7 6 5 2 1 -0 0 1 2 2 2 2 3 3 4 4 5 5 5 4 4 4 3 3 2 3 3 3 3
-0 -1 -1 -1 -1 -2 -2 -2 -1 0 1 0 -0 -0 -0 0 0 -0 -0 -0 -1 -1 -0 0 1 2 2 2 2 3 3 4 3 2 1 0 2 4 6 6 6 6 4 2 1 1 2 2 3 2 2 2 3 3 4 4 5 6 5 4 4 3 3 2 3 3 3 3 3
Height
5618 5616 5614 5612 5611 5610 5608 5607 5606 5604 5602 5601 5599 5597 5595 5593 5592 5590 5589 5587 5586 5584 5583 5582 5580 5579 5577 5576 5575 5573 5572 5571 5569 5568 5567 5567 5566 5566 5565 5565 5565 5564 5565 5565 5565 5565 5566 5566 5567 5568 5569 5571 5572 5573 5574 5575 5575 5576 5577 5579 5581 5582 5585 5587 5589 5589 5589 5591 5594
5614 5612 5610 5607 5606 5604 5603 5602 5600 5599 5597 5595 5593 5592 5590 5588 5586 5585 5583 5582 5580 5579 5577 5576 5575 5573 5572 5571 5569 5568 5567 5565 5564 5563 5562 5561 5560 5560 5560 5559 5559 5559 5559 5559 5559 5560 5560 5561 5562 5562 5564 5565 5566 5567 5568 5569 5570 5571 5572 5574 5576 5577 5579 5582 5584 5584 5585 5586 5588
5610 5607 5605 5603 5601 5599 5597 5596 5595 5593 5592 5590 5588 5586 5584 5582 5580 5578 5577 5576 5574 5573 5572 5570 5569 5567 5566 5565 5563 5562 5561 5560 5558 5557 5556 5555 5555 5554 5554 5553 5553 5553 5553 5553 5554 5554 5555 5555 5556 5557 5558 5559 5561 5562 5563 5564 5565 5566 5567 5569 5570 5572 5574 5577 5578 5580 5581 5582 5584
5606 5603 5601 5598 5596 5594 5592 5591 5589 5588 5586 5585 5583 5581 5579 5577 5574 5572 5571 5569 5568 5567 5566 5564 5563 5561 5560 5559 5557 5556 5555 5554 5553 5552 5551 5550 5549 5548 5547 5547 5547 5547 5547 5547 5548 5548 5549 5550 5550 5551 5552 5554 5555 5556 5557 5558 5559 5561 5562 5563 5565 5567 5569 5571 5573 5575 5577 5578 5580
5601 5598 5596 5593 5591 5589 5587 5585 5583 5582 5580 5579 5577 5575 5573 5571 5569 5567 5565 5563 5562 5561 5559 5558 5557 5555 5554 5553 5552 5550 5549 5548 5547 5546 5545 5544 5543 5542 5542 5541 5541 5541 5541 5542 5542 5542 5543 5544 5545 5546 5547 5548 5549 5550 5551 5552 5554 5556 5557 5558 5560 5562 5564 5566 5567 5570 5572 5574 5575
5596 5593 5591 5588 5586 5583 5581 5579 5577 5576 5575 5573 5572 5570 5567 5565 5563 5561 5559 5557 5556 5554 5553 5552 5550 5549 5548 5547 5545 5544 5543 5542 5541 5540 5539 5538 5537 5536 5536 5535 5535 5535 5535 5535 5536 5536 5537 5538 5539 5540 5541 5542 5543 5544 5546 5547 5549 5550 5552 5553 5555 5557 5558 5560 5562 5565 5567 5569 5571
5591 5588 5585 5583 5580 5578 5576 5573 5572 5570 5568 5567 5566 5564 5562 5559 5557 5555 5553 5552 5550 5548 5547 5545 5544 5542 5541 5540 5539 5538 5537 5536 5535 5534 5532 5532 5531 5530 5530 5529 5529 5529 5529 5529 5530 5530 5531 5532 5533 5535 5536 5537 5537 5539 5540 5541 5543 5545 5547 5548 5550 5552 5553 5555 5557 5559 5562 5564 5566
5585 5582 5580 5577 5575 5572 5570 5567 5565 5563 5561 5560 5558 5557 5555 5552 5551 5548 5547 5545 5543 5542 5540 5538 5537 5536 5535 5533 5532 5532 5531 5529 5528 5527 5527 5526 5525 5524 5523 5523 5523 5523 5523 5523 5524 5524 5525 5526 5528 5529 5530 5531 5532 5533 5534 5536 5537 5539 5542 5543 5545 5546 5548 5550 5552 5554 5557 5559 5561
5579 5576 5574 5571 5568 5566 5563 5561 5558 5556 5553 5551 5550 5548 5546 5544 5542 5541 5539 5537 5536 5534 5533 5532 5530 5529 5528 5527 5526 5525 5524 5523 5522 5521 5520 5519 5519 5518 5517 5517 5517 5517 5517 5517 5518 5518 5519 5521 5522 5523 5524 5525 5526 5527 5529 5530 5532 5534 5536 5538 5540 5542 5543 5545 5547 5549 5551 5553 5556
5572 5570 5567 5564 5562 5559 5556 5553 5550 5547 5545 5542 5541 5539 5537 5536 5534 5533 5531 5530 5528 5527 5526 5524 5523 5522 5521 5520 5519 5518 5517 5516 5516 5515 5514 5513 5512 5512 5511 5511 5511 5511 5511 5511 5512 5512 5513 5515 5516 5517 5518 5519 5520 5522 5523 5525 5526 5528 5530 5532 5535 5537 5538 5540 5542 5544 5546 5548 5551
5566 5563 5560 5557 5554 5551 5547 5544 5541 5539 5536 5534 5532 5531 5530 5528 5527 5526 5524 5523 5522 5520 5519 5517 5516 5515 5514 5513 5512 5511 5510 5509 5509 5508 5508 5507 5506 5505 5505 5504 5504 5505 5505 5505 5506 5507 5508 5509 5510 5512 5512 5513 5515 5516 5517 5519 5521 5522 5525 5527 5529 5532 5533 5535 5537 5539 5541 5543 5546
5558 5555 5552 5549 5545 5542 5539 5536 5533 5531 5528 5527 5525 5524 5522 5521 5520 5519 5517 5516 5515 5514 5512 5511 5509 5508 5507 5506 5505 5504 5503 5502 5502 5502 5501 5501 5500 5499 5498 5498 5498 5498 5499 5499 5500 5501 5502 5503 5505 5506 5507 5508 5509 5510 5512 5513 5515 5517 5519 5522 5524 5526 5528 5530 5532 5534 5536 5538 5541
5550 5547 5543 5539 5536 5533 5530 5528 5526 5524 5522 5520 5518 5517 5516 5515 5513 5512 5511 5510 5509 5507 5506 5504 5503 5502 5501 5499 5498 5497 5497 5496 5495 5495 5494 5494 5493 5493 5492 5492 5492 5492 5492 5493 5494 5495 5496 5497 5499 5500 5501 5502 5503 5505 5506 5508 5510 5512 5514 5516 5519 5521 5523 5525 5527 5529 5531 5533 5536
5541 5537 5534 5531 5527 5525 5523 5521 5519 5517 5516 5514 5512 5511 5509 5508 5507 5506 5504 5503 5502 5501 5499 5498 5496 5495 5494 5493 5492 5491 5490 5489 5488 5488 5488 5487 5487 5487 5486 5486 5486 5486 5487 5487 5488 5489 5490 5492 5493 5494 5496 5497 5498 5499 5500 5502 5504 5506 5508 5511 5513 5516 5518 5520 5522 5524 5526 5528 5531
5532 5528 5525 5523 5521 5518 5517 5515 5513 5511 5510 5508 5506 5504 5502 5501 5499 5498 5497 5496 5495 5494 5492 5491 5490 5488 5487 5486 5485 5484 5483 5482 5482 5481 5481 5481 5481 5480 5480 5479 5480 5480 5481 5481 5482 5483 5484 5486 5487 5489 5490 5491 5492 5493 5495 5497 5498 5501 5503 5506 5508 5510 5513 5515 5517 5519 5521 5524 5526
5524 5521 5519 5516 5514 5512 5510 5508 5507 5505 5503 5501 5499 5497 5495 5494 5492 5491 5490 5488 5487 5487 5485 5484 5483 5482 5480 5479 5478 5477 5476 5476 5475 5475 5475 5474 5474 5474 5473 5473 5473 5474 5474 5475 5477 5477 5479 5480 5482 5483 5484 5486 5487 5488 5490 5491 5493 5495 5497 5500 5502 5505 5508 5510 5512 5515 5517 5519 5522
5517 5515 5512 5510 5508 5506 5504 5502 5500 5497 5496 5494 5492 5490 5488 5486 5485 5483 5482 5481 5480 5479 5478 5477 5476 5475 5473 5472 5472 5471 5470 5469 5469 5468 5468 5468 5467 5467 5467 5467 5467 5468 5468 5470 5471 5472 5473 5474 5476 5477 5479 5480 5482 5483 5484 5486 5487 5490 5492 5495 5497 5500 5503 5505 5507 5510 5512 5515 5517
5511 5508 5506 5503 5501 5499 5497 5494 5492 5490 5488 5487 5485 5483 5481 5479 5477 5476 5474 5473 5472 5471 5470 5469 5469 5468 5467 5466 5465 5464 5463 5462 5462 5462 5462 5462 5461 5461 5461 5461 5461 5462 5463 5464 5465 5466 5468 5469 5470 5472 5473 5475 5476 5477 5479 5481 5482 5484 5487 5489 5492 5495 5497 5500 5502 5505 5508 5510 5513
5504 5501 5499 5496 5494 5491 5489 5487 5485 5483 5481 5479 5477 5475 5473 5472 5470 5468 5467 5465 5464 5463 5462 5462 5461 5461 5460 5458 5458 5457 5457 5456 5456 5456 5455 5455 5455 5455 5455 5455 5455 5456 5457 5458 5459 5461 5462 5463 5465 5466 5467 5469 5471 5472 5474 5476 5477 5479 5482 5484 5487 5490 5492 5495 5498 5500 5503 5506 5508
5497 5494 5491 5488 5486 5484 5482 5479 5477 5476 5473 5472 5470 5468 5466 5464 5462 5461 5459 5458 5457 5456 5455 5454 5454 5453 5452 5452 5451 5450 5450 5450 5449 5449 5449 5449 5449 5449 5449 5449 5450 5451 5452 5453 5454 5455 5457 5458 5459 5461 5462 5464 5466 5467 5469 5471 5472 5475 5477 5479 5482 5485 5488 5490 5493 5496 5498 5501 5504
5488 5486 5483 5481 5478 5476 5474 5472 5470 5468 5466 5464 5462 5460 5458 5457 5455 5453 5452 5450 5449 5448 5447 5447 5447 5446 5445 5445 5444 5444 5443 5443 5443 5443 5443 5443 5443 5443 5443 5444 5444 5445 5446 5447 5449 5450 5451 5452 5454 5455 5457 5459 5461 5462 5464 5466 5468 5470 5472 5475 5477 5480 5483 5486 5488 5491 5494 5497 5499
5481 5478 5475 5472 5470 5468 5466 5464 5462 5460 5458 5456 5454 5452 5451 5449 5447 5446 5444 5443 5442 5441 5440 5440 5439 5439 5438 5438 5437 5437 5437 5437 5437 5437 5437 5437 5437 5437 5438 5438 5439 5440 5441 5442 5443 5444 5446 5447 5449 5450 5452 5454 5456 5457 5460 5462 5463 5466 5468 5470 5473 5476 5478 5481 5484 5487 5489 5492 5495
5473 5470 5467 5465 5462 5460 5458 5456 5454 5452 5450 5448 5447 5445 5443 5442 5440 5438 5437 5436 5435 5434 5433 5433 5432 5432 5432 5431 5431 5431 5431 5431 5431 5431 5431 5432 5432 5432 5432 5433 5434 5435 5436 5437 5438 5439 5441 5442 5443 5445 5447 5449 5451 5453 5455 5457 5459 5461 5463 5466 5469 5472 5474 5477 5480 5482 5485 5488 5491
5465 5462 5459 5457 5454 5452 5450 5448 5446 5444 5442 5440 5439 5437 5436 5434 5433 5432 5430 5429 5428 5427 5426 5426 5426 5425 5425 5425 5425 5425 5425 5425 5425 5426 5426 5426 5426 5427 5427 5428 5429 5430 5431 5432 5433 5434 5436 5437 5439 5440 5442 5444 5446 5448 5450 5452 5454 5457 5459 5462 5464 5467 5470 5473 5475 5478 5481 5484 5487
5457 5454 5452 5449 5447 5444 5442 5440 5438 5436 5434 5433 5431 5430 5428 5427 5426 5425 5423 5422 5421 5420 5420 5419 5419 5419 5419 5419 5419 5419 5419 5419 5420 5420 5421 5421 5421 5422 5423 5424 5425 5426 5427 5427 5429 5430 5431 5432 5434 5436 5437 5439 5442 5444 5446 5448 5450 5452 5455 5457 5460 5463 5466 5469 5472 5474 5477 5480 5482
5449 5447 5444 5441 5439 5437 5434 5432 5430 5428 5427 5425 5424 5422 5421 5420 5419 5418 5417 5416 5415 5414 5413 5413 5413 5413 5413 5413 5413 5413 5414 5414 5414 5415 5415 5416 5417 5417 5418 5419 5420 5421 5422 5423 5424 5425 5427 5428 5430 5431 5433 5435 5437 5439 5442 5444 5446 5448 5451 5454 5457 5460 5462 5465 5468 5470 5473 5476 5479
5442 5439 5436 5434 5431 5429 5427 5424 5422 5420 5419 5417 5416 5415 5414 5413 5412 5411 5410 5409 5409 5408 5407 5407 5407 5407 5407 5407 5408 5408 5408 5409 5409 5410 5410 5411 5412 5413 5414 5415 5416 5417 5418 5419 5420 5421 5422 5424 5425 5427 5429 5431 5433 5435 5437 5440 5442 5444 5447 5450 5453 5456 5459 5461 5464 5467 5469 5472 5475
5434 5431 5428 5426 5423 5421 5419 5417 5415 5413 5411 5410 5409 5408 5407 5407 5406 5405 5404 5403 5402 5402 5402 5402 5402 5402 5402 5402 5403 5403 5404 5404 5404 5405 5406 5407 5407 5409 5410 5411 5412 5412 5413 5415 5416 5417 5418 5420 5421 5423 5425 5427 5429 5431 5433 5436 5438 5441 5443 5447 5450 5452 5455 5457 5460 5463 5466 5469 5472
5426 5423 5420 5418 5416 5413 5412 5409 5407 5406 5404 5403 5402 5401 5401 5400 5399 5399 5398 5397 5397 5397 5396 5396 5396 5397 5397 5397 5398 5398 5399 5399 5400 5400 5401 5402 5403 5404 5406 5407 5407 5408 5410 5411 5412 5413 5414 5416 5417 5419 5421 5422 5425 5427 5430 5432 5435 5437 5440 5443 5446 5449 5452 5454 5457 5459 5462 5465 5468
5418 5415 5412 5410 5408 5406 5404 5402 5400 5398 5397 5396 5395 5394 5394 5394 5393 5393 5392 5392 5392 5391 5391 5391 5392 5392 5392 5393 5394 5394 5395 5395 5396 5396 5397 5398 5399 5401 5402 5403 5404 5405 5406 5407 5408 5409 5411 5412 5413 5415 5417 5419 5421 5423 5426 5429 5431 5434 5437 5440 5443 5446 5448 5451 5453 5456 5459 5462 5465
5411 5407 5405 5402 5400 5398 5396 5394 5393 5391 5390 5389 5388 5388 5388 5387 5387 5387 5387 5387 5386 5386 5386 5387 5387 5387 5388 5389 5389 5390 5390 5391 5392 5392 5393 5394 5396 5397 5398 5399 5400 5401 5402 5403 5404 5406 5407 5408 5410 5412 5413 5415 5417 5420 5422 5425 5428 5431 5434 5437 5440 5442 5445 5447 5450 5453 5456 5459 5462
5403 5400 5397 5395 5392 5390 5389 5387 5386 5384 5383 5382 5382 5382 5381 5381 5381 5381 5381 5381 5381 5381 5382 5382 5383 5383 5384 5385 5385 5386 5386 5387 5388 5388 5390 5391 5392 5393 5394 5396 5397 5397 5399 5400 5401 5402 5404 5405 5407 5408 5410 5412 5414 5417 5419 5422 5425 5428 5431 5434 5437 5439 5441 5444 5447 5450 5453 5456 5459
5396 5393 5390 5387 5385 5383 5382 5380 5378 5377 5376 5376 5375 5375 5375 5375 5375 5376 5376 5376 5376 5377 5377 5378 5379 5379 5380 5381 5381 5382 5382 5383 5384 5385 5386 5387 5388 5390 5391 5392 5393 5394 5396 5397 5398 5399 5401 5402 5403 5405 5407 5409 5412 5414 5416 5419 5422 5425 5428 5431 5433 5436 5438 5441 5444 5447 5450 5453 5457
5388 5385 5383 5380 5378 5376 5374 5373 5372 5371 5370 5369 5369 5369 5369 5369 5370 5370 5371 5371 5372 5372 5373 5374 5375 5375 5376 5377 5377 5378 5379 5380 5381 5382 5383 5384 5385 5387 5388 5389 5390 5392 5393 5394 5395 5397 5398 5399 5401 5402 5404 5406 5409 5411 5414 5417 5420 5422 5425 5428 5430 5432 5435 5438 5441 5444 5447 5451 5454
5381 5378 5376 5373 5372 5370 5368 5367 5365 5364 5363 5363 5363 5363 5363 5363 5364 5365 5365 5366 5367 5368 5369 5370 5371 5371 5372 5373 5374 5374 5375 5377 5377 5378 5380 5381 5382 5383 5385 5386 5388 5389 5391 5392 5393 5394 5395 5397 5398 5400 5402 5403 5406 5409 5412 5415 5417 5420 5423 5425 5427 5430 5432 5435 5438 5442 5445 5448 5451
5375 5372 5369 5367 5365 5363 5362 5360 5359 5358 5357 5357 5357 5357 5357 5358 5359 5359 5360 5361 5362 5364 5365 5366 5367 5367 5368 5369 5370 5371 5372 5373 5374 5375 5377 5378 5379 5381 5382 5384 5385 5387 5388 5389 5390 5392 5393 5394 5396 5397 5399 5402 5404 5407 5409 5412 5415 5418 5420 5422 5425 5427 5430 5433 5436 5439 5442 5446 5449
5369 5366 5363 5361 5359 5357 5356 5355 5353 5352 5352 5352 5351 5352 5352 5352 5353 5354 5356 5357 5358 5359 5361 5362 5363 5364 5365 5366 5367 5368 5369 5370 5371 5372 5374 5375 5377 5378 5380 5382 5383 5385 5386 5387 5388 5389 5391 5392 5393 5395 5397 5400 5402 5405 5407 5410 5413 5415 5417 5420 5422 5425 5427 5431 5434 5437 5440 5443 5447
5363 5361 5358 5356 5354 5352 5351 5350 5348 5347 5347 5347 5346 5347 5347 5347 5348 5350 5351 5352 5354 5355 5357 5358 5359 5360 5361 5362 5363 5364 5366 5367 5368 5370 5371 5373 5375 5377 5378 5380 5382 5383 5384 5385 5386 5387 5388 5390 5392 5394 5396 5398 5401 5403 5406 5408 5410 5412 5415 5417 5420 5422 5426 5429 5432 5435 5438 5441 5444
5359 5356 5353 5351 5349 5347 5346 5345 5344 5343 5342 5342 5342 5342 5342 5343 5344 5345 5347 5348 5350 5351 5353 5355 5356 5357 5358 5359 5360 5362 5363 5364 5366 5367 5369 5371 5373 5375 5377 5378 5379 5381 5382 5382 5383 5384 5386 5388 5390 5392 5394 5396 5398 5401 5403 5405 5407 5410 5412 5415 5417 5421 5423 5427 5430 5432 5436 5439 5442
5354 5352 5349 5347 5345 5343 5342 5341 5340 5339 5338 5337 5337 5337 5338 5338 5339 5341 5342 5344 5346 5348 5349 5351 5352 5354 5355 5356 5357 5359 5360 5362 5363 5365 5367 5369 5371 5373 5375 5376 5377 5378 5379 5380 5381 5382 5384 5386 5388 5391 5392 5394 5396 5398 5401 5403 5405 5407 5410 5413 5416 5418 5422 5425 5427 5431 5434 5437 5440
5350 5347 5345 5343 5341 5339 5338 5337 5336 5335 5334 5334 5333 5333 5334 5335 5336 5337 5339 5340 5342 5344 5346 5348 5349 5351 5352 5353 5355 5356 5357 5359 5361 5363 5365 5367 5369 5371 5373 5374 5375 5376 5377 5378 5380 5381 5383 5385 5387 5389 5391 5392 5394 5396 5398 5401 5403 5405 5408 5411 5414 5417 5420 5423 5426 5429 5432 5435 5438